CZ-2C R/B (55845 NORAD) Tracking and Keplerian Element Data

This shows tracking and keplerian element data for the satellite.

Feedback or suggestion? Click here.




ElementValue
Catalog55845
NameCZ-2C R/B
Epoch Orbit184
Epoch Day84.77903965
Epoch Year2023
RAAN157.9418
Inclination97.2592
Eccentricity0.0096615
Argument of Perigee181.8468
Mean Anonmoly178.2475
Mean Motion15.13997331
Decay Rate0.00123422
L11 55845U 23032B 23084.77903965 .00123422 00000+0 59711-2 0 9998
L22 55845 97.2592 157.9418 0096615 181.8468 178.2475 15.13997331 1840



Live tracking and technical data element details for CZ-2C R/B (NORAD 55845). CZ-2C R/B can be tracked NOW for your location showing map with azimuth and elevation plus other details from your city location.







IsCatalogInMostPopularTable: catalog: 55845, numindb: 6
Update: records affected: 1



GetName: 55845 CZ-2C R/B

Hit Count: updated at: Tue, 06 Jun 2023 03:00:48 GMT